Wind_Speed
11 10 10 10 10 10 11 11 12 12 11 13 14 16 16 17 19 20 18 14 9 9 5 7 10 12 12 13 14 14 14 14 14 15 14 15 14 13 13 12 13 12 11
8 11 11 11 11 12 13 13 13 13 13 14 15 16 17 16 15 14 14 11 8 7 9 12 13 13 14 14 15 15 14 14 14 13 13 14 13 13 13 13 13 12 11
11 12 12 13 13 14 14 14 14 15 14 14 14 15 17 17 16 14 13 12 11 13 15 15 14 14 14 14 14 15 14 15 13 13 14 16 15 15 15 14 13 13 12
14 15 15 15 15 16 16 16 16 15 15 15 14 16 17 17 17 16 16 16 17 17 16 16 14 14 13 14 14 14 15 15 13 15 16 17 17 17 16 16 15 15 14
19 19 18 18 18 18 17 17 16 16 16 17 16 17 18 18 19 19 18 18 18 17 16 15 12 13 13 14 15 15 17 16 16 18 18 18 19 18 18 18 17 16 15
22 21 19 18 20 20 19 18 17 16 16 17 16 17 17 17 17 17 17 16 16 15 14 13 13 14 15 16 17 17 19 19 19 19 19 19 20 19 20 20 20 18 17
23 23 21 19 19 20 21 21 20 18 17 16 16 16 17 16 16 16 15 15 15 15 15 15 15 15 15 16 16 16 16 17 16 17 17 17 17 17 18 18 19 18 18
25 24 22 20 19 19 20 20 21 21 20 19 18 18 18 18 17 16 16 16 16 16 15 14 14 14 13 13 13 13 13 14 14 15 16 16 16 16 16 17 17 18 17
30 26 24 20 19 19 18 19 19 19 19 19 19 18 18 18 17 16 16 15 14 13 13 12 11 11 10 10 10 11 12 13 13 13 14 15 15 16 16 17 17 17 17
34 30 26 21 18 18 17 16 16 15 15 15 15 14 15 14 13 12 11 10 9 8 7 6 6 7 8 9 11 12 13 14 14 14 15 14 15 16 16 16 16 17 17
36 33 29 25 20 18 17 14 13 12 11 11 10 10 9 9 8 6 5 5 4 4 5 6 7 8 10 11 12 14 14 15 15 15 15 15 15 16 16 17 17 17 17
32 34 32 28 24 20 17 15 13 11 9 8 6 5 4 3 3 1 1 3 5 6 7 9 10 11 12 13 14 15 16 16 17 16 15 15 16 16 16 17 17 18 18
22 27 33 30 26 23 20 17 15 12 11 9 8 6 4 3 3 4 4 6 8 9 10 12 12 13 14 14 14 16 16 17 17 15 15 16 17 17 17 17 18 19 20
27 21 29 31 28 26 23 21 19 16 13 12 11 10 8 8 8 7 8 8 8 10 11 12 13 14 14 15 16 16 17 17 17 16 16 18 19 19 19 20 19 21 22
30 25 25 28 29 27 24 23 22 20 17 15 14 14 13 12 12 11 9 9 10 11 11 12 13 14 14 15 16 16 16 16 16 17 17 19 20 21 22 23 23 24 24
19 27 34 27 27 26 25 24 24 22 21 20 19 17 16 16 16 14 12 11 11 11 12 13 14 15 16 17 17 16 16 17 18 19 21 21 21 23 24 26 27 27 28
25 25 27 34 29 28 26 26 26 26 25 24 21 20 19 18 18 16 13 12 12 13 14 15 17 18 18 19 19 19 19 20 21 21 22 24 24 25 26 26 26 28 29
29 25 27 20 28 27 24 26 27 27 26 25 24 21 20 20 18 16 15 14 15 15 16 18 19 20 21 21 21 21 21 22 23 24 26 26 25 28 28 28 25 25 26
26 23 28 26 24 21 21 22 24 24 24 23 24 23 21 19 18 16 16 16 18 20 20 20 21 22 22 23 23 23 24 25 27 27 28 27 30 29 30 28 28 24 25
27 27 28 26 25 23 26 26 27 26 27 29 28 24 20 18 18 18 18 19 21 21 22 22 23 24 25 26 26 27 27 29 30 30 29 28 30 30 29 30 27 26 25
27 28 27 27 25 23 22 22 22 22 22 22 21 20 19 19 19 20 20 22 23 22 22 24 25 27 27 29 31 31 30 31 32 31 31 29 30 31 29 26 26 27 27
26 26 26 25 25 25 24 23 22 21 19 19 20 20 21 21 22 21 21 22 23 24 25 27 28 29 30 30 33 36 37 34 34 31 30 29 28 29 28 27 28 29 28
27 24 27 25 24 26 27 27 25 24 24 24 23 22 22 23 22 23 24 25 26 26 26 27 29 31 33 32 34 37 40 40 37 34 32 30 28 28 29 30 31 30 28
30 28 23 27 28 28 29 31 29 27 26 26 27 25 23 23 24 25 25 26 27 29 29 30 31 33 35 36 35 37 38 38 37 38 30 27 29 28 30 33 32 32 27
33 37 30 28 29 31 30 31 32 30 29 27 25 24 24 25 26 26 28 29 30 31 32 33 34 35 37 38 38 36 35 34 34 35 36 28 30 30 32 35 33 31 29
33 37 36 34 32 31 33 32 33 31 28 24 22 22 21 22 24 26 29 31 32 33 34 35 35 36 37 38 37 35 34 33 32 33 35 34 31 30 34 34 28 25 31
Wind_Direction
151 151 165 162 153 143 134 128 120 114 111 110 108 104 109 122 130 129 130 134 139 137 122 73 79 83 83 80 77 71 66 62 59 59 60 61 58 53 49 50 51 47 42
152 147 161 155 148 137 131 126 118 114 114 114 111 109 108 113 123 132 142 141 143 129 96 93 90 88 85 82 78 71 66 61 54 54 55 56 48 46 45 45 43 38 34
149 147 151 146 141 133 128 122 117 114 114 112 112 112 109 109 109 114 117 119 115 106 102 97 94 90 84 77 72 69 64 63 61 58 57 55 48 46 44 40 39 34 28
144 141 141 137 132 127 124 119 115 114 113 112 113 112 110 109 107 108 107 106 105 105 103 99 95 89 82 75 69 66 65 59 58 57 53 53 47 43 40 37 34 30 25
145 140 136 130 124 121 119 117 115 115 114 113 114 112 109 107 105 104 104 104 103 103 100 97 92 85 78 72 67 63 61 57 56 56 54 52 49 43 39 36 33 30 27
151 144 139 130 121 116 113 112 112 113 112 112 112 110 107 106 105 106 105 106 103 99 94 89 82 79 76 72 67 63 62 57 49 50 46 43 41 37 35 34 31 28 25
159 151 144 133 125 118 112 107 105 104 104 105 106 105 103 101 100 99 98 95 93 91 88 86 83 78 72 66 59 53 48 46 38 36 35 33 30 27 24 21 19 17 18
167 160 151 142 132 124 118 112 105 100 97 97 96 99 98 95 94 93 92 91 89 87 84 78 73 67 60 52 44 38 33 24 25 14 16 13 12 11 9 7 6 5 5
173 168 160 154 142 136 128 122 115 110 103 97 92 90 92 91 87 84 82 79 78 75 72 67 60 52 41 30 18 11 10 3 3 6 360 359 358 360 358 355 353 351 351
177 173 171 167 156 147 141 134 127 121 114 109 103 95 90 85 85 81 77 71 65 58 52 43 30 15 2 354 348 345 346 345 345 354 343 347 349 352 349 346 344 341 340
182 179 178 176 171 163 156 149 142 136 127 121 114 108 100 97 93 82 70 57 39 7 347 340 337 333 332 330 328 328 331 331 333 336 335 341 344 343 341 341 338 337 336
185 185 183 185 181 178 173 170 167 162 157 155 154 139 118 109 130 106 347 331 317 313 313 312 312 313 315 315 317 319 320 320 324 327 331 335 337 338 337 337 337 336 335
217 192 192 191 190 189 188 188 189 188 189 195 207 210 213 224 254 279 289 299 306 303 305 304 305 306 305 303 306 305 309 312 315 322 326 329 329 331 331 331 330 330 330
217 210 207 197 199 197 200 202 204 208 213 219 232 247 254 252 261 270 284 292 297 302 304 302 302 301 301 302 300 304 304 307 310 315 320 321 322 324 325 324 322 321 322
241 213 215 209 207 207 209 214 218 221 227 230 237 252 264 269 273 276 278 287 293 299 300 301 301 300 299 299 300 298 298 303 305 306 309 311 316 317 319 319 317 315 315
241 228 228 216 233 219 218 225 230 232 234 236 241 249 259 268 271 273 272 277 287 297 302 305 308 310 311 306 302 301 301 301 302 306 307 308 309 313 313 314 313 313 312
224 225 221 229 245 243 236 235 242 244 243 245 248 251 257 262 267 269 268 278 289 297 302 304 305 306 305 303 303 303 306 306 305 304 304 306 307 310 309 310 310 308 306
221 229 236 236 235 236 240 241 241 246 249 253 253 253 253 257 258 257 264 274 285 291 296 299 300 302 302 302 301 300 299 301 302 304 307 308 309 308 308 309 309 302 303
223 221 223 233 236 241 240 242 246 249 254 254 259 254 248 248 247 251 262 276 287 292 295 296 297 299 301 301 301 300 301 302 300 301 304 306 303 306 308 307 309 308 306
223 228 230 232 235 237 244 251 255 252 250 253 252 247 242 235 241 252 266 278 283 287 293 296 298 300 302 301 300 299 300 299 300 301 299 296 298 299 301 302 303 302 301
227 229 234 239 237 239 243 248 252 252 248 245 242 237 236 239 246 257 269 279 283 286 291 293 296 297 299 300 300 301 299 299 297 299 296 294 294 295 296 299 298 300 302
237 239 236 240 244 248 249 248 247 245 240 236 238 239 244 254 261 268 275 277 280 285 290 292 295 296 296 298 300 300 301 299 300 298 292 292 291 293 297 298 295 295 298
238 245 246 245 244 246 249 247 246 244 242 242 243 244 248 257 264 269 273 278 283 286 289 291 293 293 294 295 296 296 299 300 301 299 299 298 296 297 298 297 296 297 300
241 242 248 250 250 245 245 245 246 248 247 246 249 253 257 261 267 274 277 282 285 287 288 288 288 289 290 291 291 292 292 294 295 296 295 293 291 291 292 289 292 296 294
246 248 247 249 252 255 251 247 245 242 242 245 252 260 266 274 277 279 281 282 284 285 287 288 289 288 288 288 287 287 287 287 288 290 292 290 288 290 288 289 292 292 284
249 248 253 253 251 250 253 251 250 248 247 249 251 264 268 275 281 286 290 288 286 288 289 289 289 289 288 287 286 286 286 285 286 286 288 290 286 286 284 287 286 293 293
Height
3178 3179 3181 3182 3182 3182 3183 3183 3183 3184 3184 3184 3184 3184 3184 3185 3186 3187 3189 3190 3190 3191 3192 3193 3192 3192 3192 3191 3191 3191 3191 3191 3191 3189 3189 3188 3187 3187 3186 3185 3184 3184 3183
3178 3178 3180 3181 3183 3183 3183 3184 3184 3184 3185 3186 3186 3186 3186 3187 3188 3189 3190 3191 3192 3193 3193 3194 3194 3194 3194 3193 3193 3193 3193 3193 3192 3192 3191 3190 3189 3188 3188 3187 3186 3185 3184
3178 3179 3180 3182 3183 3184 3184 3185 3185 3185 3187 3188 3188 3188 3188 3189 3189 3190 3191 3192 3193 3193 3194 3194 3196 3196 3196 3195 3195 3195 3194 3194 3194 3193 3192 3191 3190 3190 3189 3188 3187 3186 3185
3179 3180 3181 3183 3184 3185 3185 3185 3186 3187 3188 3189 3189 3190 3190 3191 3191 3192 3193 3193 3194 3195 3196 3196 3198 3197 3197 3196 3196 3196 3196 3196 3196 3194 3193 3193 3192 3191 3190 3189 3188 3187 3186
3179 3181 3182 3184 3184 3185 3186 3186 3187 3188 3189 3190 3191 3192 3192 3192 3193 3194 3195 3196 3196 3197 3198 3198 3199 3199 3199 3198 3198 3198 3198 3197 3197 3196 3196 3195 3194 3193 3192 3190 3189 3188 3187
3179 3181 3183 3184 3184 3185 3187 3188 3189 3190 3191 3192 3193 3193 3194 3195 3195 3196 3197 3198 3198 3199 3200 3201 3201 3201 3201 3200 3200 3200 3200 3200 3199 3198 3198 3197 3196 3195 3194 3192 3191 3189 3188
3179 3180 3182 3183 3185 3185 3187 3188 3190 3191 3192 3193 3194 3195 3196 3197 3198 3199 3199 3200 3201 3201 3202 3203 3203 3203 3203 3202 3202 3202 3202 3201 3201 3200 3199 3198 3197 3196 3194 3193 3192 3191 3189
3178 3180 3182 3183 3184 3186 3187 3189 3191 3192 3194 3195 3196 3197 3198 3199 3200 3201 3202 3202 3203 3203 3204 3205 3205 3205 3205 3204 3204 3204 3203 3203 3203 3200 3200 3199 3197 3196 3195 3193 3192 3191 3189
3176 3179 3181 3183 3184 3186 3187 3189 3191 3193 3194 3196 3198 3199 3200 3200 3202 3203 3204 3204 3205 3206 3206 3206 3206 3206 3206 3206 3205 3205 3204 3203 3203 3201 3200 3198 3197 3195 3194 3193 3191 3190 3189
3172 3176 3180 3183 3185 3187 3188 3190 3191 3193 3194 3196 3198 3199 3200 3201 3203 3204 3205 3206 3206 3207 3207 3207 3207 3207 3207 3207 3206 3205 3204 3203 3202 3201 3199 3198 3196 3194 3193 3192 3190 3189 3188
3167 3171 3177 3181 3184 3186 3188 3190 3192 3193 3194 3196 3198 3199 3200 3201 3203 3204 3205 3206 3207 3208 3208 3208 3207 3207 3207 3206 3205 3204 3203 3202 3201 3200 3198 3197 3195 3193 3192 3190 3189 3187 3186
3166 3167 3174 3178 3182 3185 3187 3189 3191 3193 3194 3196 3198 3199 3201 3202 3203 3204 3205 3206 3207 3207 3207 3207 3206 3206 3206 3205 3204 3203 3202 3201 3199 3199 3197 3195 3194 3192 3191 3189 3187 3186 3184
3167 3167 3171 3177 3180 3183 3186 3188 3190 3192 3194 3196 3197 3199 3200 3201 3202 3203 3204 3204 3205 3205 3205 3205 3205 3204 3204 3203 3202 3201 3200 3199 3197 3196 3195 3193 3192 3190 3189 3187 3185 3184 3182
3164 3166 3170 3174 3178 3181 3183 3186 3188 3190 3193 3194 3196 3197 3200 3201 3201 3202 3202 3202 3202 3203 3203 3203 3202 3202 3201 3200 3200 3198 3197 3196 3195 3194 3192 3191 3189 3188 3186 3184 3183 3181 3179
3161 3165 3169 3172 3175 3179 3181 3184 3186 3188 3190 3192 3194 3195 3197 3198 3199 3199 3199 3200 3200 3200 3200 3200 3199 3199 3198 3197 3196 3195 3194 3193 3192 3191 3189 3188 3186 3184 3183 3181 3178 3177 3175
3159 3165 3168 3170 3175 3176 3179 3181 3184 3186 3188 3189 3191 3192 3194 3195 3196 3196 3197 3197 3197 3197 3197 3197 3196 3195 3194 3193 3192 3191 3190 3189 3188 3186 3185 3184 3183 3181 3178 3176 3174 3171 3169
3158 3162 3164 3170 3172 3174 3176 3179 3180 3182 3183 3185 3188 3189 3190 3191 3193 3194 3194 3193 3193 3193 3193 3193 3192 3191 3190 3189 3189 3187 3186 3185 3184 3182 3181 3179 3178 3176 3174 3172 3169 3167 3164
3154 3157 3161 3161 3168 3169 3172 3175 3177 3178 3179 3181 3183 3185 3186 3187 3188 3189 3190 3190 3190 3190 3189 3189 3188 3187 3186 3185 3184 3183 3182 3180 3178 3177 3175 3174 3172 3170 3168 3166 3164 3162 3159
3150 3154 3157 3160 3164 3165 3168 3170 3172 3173 3175 3176 3177 3180 3182 3183 3184 3185 3186 3186 3186 3186 3185 3184 3184 3183 3182 3180 3179 3178 3177 3175 3173 3172 3171 3169 3166 3163 3162 3160 3158 3155 3153
3146 3150 3153 3156 3160 3162 3163 3166 3167 3168 3170 3171 3173 3174 3177 3178 3180 3181 3181 3182 3182 3181 3181 3179 3179 3177 3177 3175 3173 3172 3172 3170 3168 3167 3165 3164 3161 3158 3156 3153 3151 3149 3148
3142 3145 3148 3152 3155 3156 3157 3160 3162 3164 3166 3167 3168 3170 3172 3174 3175 3176 3177 3177 3177 3177 3176 3174 3173 3173 3172 3169 3167 3166 3165 3164 3162 3161 3159 3157 3155 3152 3150 3147 3144 3142 3142
3138 3141 3145 3147 3149 3152 3153 3156 3158 3160 3161 3163 3165 3166 3168 3170 3170 3171 3172 3172 3171 3172 3171 3170 3168 3167 3166 3165 3161 3158 3155 3157 3155 3154 3152 3151 3149 3146 3143 3141 3139 3138 3136
3133 3137 3140 3143 3145 3148 3149 3151 3153 3155 3157 3158 3161 3162 3164 3165 3166 3166 3166 3166 3166 3166 3164 3164 3162 3161 3159 3159 3156 3153 3148 3146 3145 3144 3144 3142 3141 3139 3136 3134 3132 3131 3130
3129 3132 3135 3137 3140 3143 3144 3146 3149 3150 3152 3154 3156 3158 3159 3160 3160 3161 3161 3160 3160 3159 3158 3157 3155 3154 3152 3151 3149 3147 3143 3140 3136 3134 3137 3136 3133 3133 3130 3126 3126 3125 3124
3124 3127 3130 3132 3134 3137 3139 3141 3143 3145 3147 3149 3150 3152 3153 3153 3154 3154 3154 3154 3153 3152 3151 3150 3148 3147 3145 3142 3140 3139 3137 3135 3132 3129 3125 3130 3127 3125 3123 3120 3120 3118 3116
3118 3121 3123 3126 3129 3130 3132 3135 3136 3138 3140 3142 3144 3145 3146 3147 3149 3149 3148 3147 3146 3145 3144 3142 3140 3138 3136 3134 3132 3130 3129 3128 3127 3124 3121 3119 3120 3118 3114 3112 3112 3111 3109